DLH494 EDDM-CYYZ

Flight info

Callsign DLH494
Flight time N/A
Altitude 38000
Route GIVMI1N GIVMI Y101 INBED DCT REKDI DCT LOHRE DCT ADKUV DCT BUB DCT DENUT L610 KOPUL Q63 ICTAM L179 SAWPE DCT OZZIL DCT ARPAK DCT FELCA DCT OFSOX DCT SLANY DCT TOBOR/M084F390 NATC ELSIR/N0476F400 N412A MIILS DCT LETAK IMEBA9
Aircraft A359/H-SDE2E3GHIJ3J4J5LM1ORWXY/LB1D1

Departure

Time 2026-05-06 08:40
Airport Munich Airport (EDDM)

Arrival

Time N/A
Airport Toronto Pearson International Airport (CYYZ)
Time Latitude Longitude Altitude Speed Heading
2026-05-06 08:18 48.35667 11.79964 1476 ft 0 kts 263°
2026-05-06 08:27 48.35668 11.79971 1491 ft 2 kts 264°
2026-05-06 08:27 48.35669 11.79999 1476 ft 3 kts 275°
2026-05-06 08:27 48.35667 11.80019 1481 ft 3 kts 282°
2026-05-06 08:28 48.35663 11.80043 1476 ft 3 kts 292°
2026-05-06 08:28 48.35654 11.80070 1476 ft 3 kts 307°
2026-05-06 08:28 48.35641 11.80092 1476 ft 3 kts 326°
2026-05-06 08:28 48.35626 11.80103 1476 ft 1 kts 351°
2026-05-06 08:29 48.35624 11.80104 1476 ft 0 kts 353°
2026-05-06 08:32 48.35625 11.80104 1476 ft 1 kts 353°
2026-05-06 08:32 48.35638 11.80101 1476 ft 0 kts 353°
2026-05-06 08:32 48.35648 11.80099 1476 ft 4 kts 351°
2026-05-06 08:33 48.35696 11.80084 1476 ft 10 kts 348°
2026-05-06 08:33 48.35780 11.80064 1482 ft 13 kts 346°
2026-05-06 08:33 48.35824 11.79952 1489 ft 15 kts 268°
2026-05-06 08:33 48.35812 11.79785 1479 ft 16 kts 263°
2026-05-06 08:34 48.35799 11.79613 1482 ft 14 kts 264°
2026-05-06 08:34 48.35938 11.79505 1484 ft 14 kts 354°
2026-05-06 08:34 48.36039 11.79488 1484 ft 15 kts 353°
2026-05-06 08:35 48.36145 11.79469 1486 ft 16 kts 353°
2026-05-06 08:35 48.36219 11.79549 1484 ft 14 kts 74°
2026-05-06 08:35 48.36232 11.79699 1482 ft 16 kts 84°
2026-05-06 08:35 48.36246 11.79887 1483 ft 20 kts 83°
2026-05-06 08:36 48.36264 11.80118 1480 ft 24 kts 84°
2026-05-06 08:36 48.36282 11.80368 1478 ft 24 kts 83°
2026-05-06 08:36 48.36302 11.80616 1488 ft 24 kts 83°
2026-05-06 08:36 48.36322 11.80864 1482 ft 24 kts 83°
2026-05-06 08:37 48.36341 11.81113 1482 ft 24 kts 83°
2026-05-06 08:37 48.36360 11.81361 1488 ft 24 kts 84°
2026-05-06 08:37 48.36378 11.81606 1479 ft 24 kts 83°
2026-05-06 08:37 48.36396 11.81840 1478 ft 18 kts 83°
2026-05-06 08:38 48.36393 11.82022 1480 ft 18 kts 85°
2026-05-06 08:38 48.36456 11.82137 1482 ft 15 kts
2026-05-06 08:38 48.36555 11.82119 1484 ft 15 kts 352°
2026-05-06 08:38 48.36646 11.82046 1476 ft 16 kts 313°
2026-05-06 08:39 48.36676 11.81933 1479 ft 12 kts 270°
2026-05-06 08:39 48.36661 11.81753 1484 ft 30 kts 263°
2026-05-06 08:39 48.36612 11.81128 1484 ft 90 kts 263°
2026-05-06 08:39 48.36555 11.80384 1480 ft 126 kts 263°
2026-05-06 08:40 48.36436 11.78826 1499 ft 172 kts 263°
2026-05-06 08:40 48.36249 11.76469 2333 ft 168 kts 263°
2026-05-06 08:40 48.36146 11.75275 2699 ft 173 kts 262°
2026-05-06 08:40 48.35977 11.73421 3041 ft 186 kts 262°
2026-05-06 08:41 48.35810 11.71414 3310 ft 201 kts 263°
2026-05-06 08:41 48.35644 11.69241 3589 ft 217 kts 263°
2026-05-06 08:41 48.35724 11.66911 3881 ft 232 kts 288°
2026-05-06 08:41 48.36578 11.64780 4157 ft 250 kts 311°
2026-05-06 08:42 48.37784 11.62769 4501 ft 266 kts 310°
2026-05-06 08:42 48.38867 11.60497 5062 ft 272 kts 301°
2026-05-06 08:42 48.39838 11.58035 5769 ft 275 kts 299°
2026-05-06 08:42 48.40810 11.55548 6459 ft 278 kts 299°
2026-05-06 08:43 48.41807 11.53033 7149 ft 281 kts 299°
2026-05-06 08:43 48.42822 11.50498 7892 ft 283 kts 299°
2026-05-06 08:43 48.43846 11.47955 8660 ft 285 kts 298°
2026-05-06 08:43 48.44921 11.45424 9413 ft 290 kts 304°
2026-05-06 08:44 48.46422 11.43362 10078 ft 299 kts 327°
2026-05-06 08:44 48.48436 11.42275 10434 ft 319 kts 346°
2026-05-06 08:44 48.50687 11.41659 10742 ft 337 kts 349°
2026-05-06 08:44 48.53061 11.41062 11067 ft 354 kts 348°
2026-05-06 08:45 48.55501 11.40428 11486 ft 366 kts 348°
2026-05-06 08:45 48.58046 11.39750 12049 ft 373 kts 348°
2026-05-06 08:45 48.60622 11.39054 12667 ft 379 kts 348°
2026-05-06 08:45 48.63236 11.38341 13294 ft 384 kts 347°
2026-05-06 08:46 48.65882 11.37615 13891 ft 389 kts 347°
2026-05-06 08:46 48.68554 11.36842 14506 ft 391 kts 345°
2026-05-06 08:46 48.71095 11.35436 15124 ft 389 kts 330°
2026-05-06 08:46 48.73464 11.33431 15740 ft 390 kts 325°
2026-05-06 08:47 48.75706 11.31209 16333 ft 392 kts 322°
2026-05-06 08:47 48.77953 11.28833 16954 ft 394 kts 321°
2026-05-06 08:47 48.80204 11.26417 17522 ft 398 kts 321°
2026-05-06 08:47 48.82492 11.23993 18107 ft 402 kts 322°